Regional Weather Roundup
Issued by NWS Portland, ME

Current Version | Previous Version | Text Only | Print | Product List | Glossary On
Versions: 1 2 3 4 5 6 7 8 9 10 11 12 13 14 15 16 17 18 19 20 21 22 23 24 25 26 27 28 29 30 31 32 33 34 35 36 37 38 39 40 41 42 43 44 45 46 47 48 49 50
000
ASUS41 KGYX 230910
RWRGYX
WEATHER ROUNDUP FOR MAINE AND NEW HAMPSHIRE
NATIONAL WEATHER SERVICE GRAY ME
400 AM EST THU JAN 23 2020

MEZ002-005-006-010-012-015-018-020-021-024-026-027-029-231000-
MAINE

CITY           SKY/WX    TMP DP  RH WIND       PRES   REMARKS
PORTLAND       FAIR      24  13  62 S5        30.31F
SANFORD        FAIR       8   5  87 CALM      30.31F
BAR HARBOR     FAIR      18  16  92 CALM      30.30F
WISCASSET      FAIR       8   4  83 CALM      30.32F
ROCKLAND       FAIR      13  11  92 CALM      30.30F
FRYEBURG       FAIR       0  -4  83 CALM      30.29S
LEWISTONAUBURN FAIR       6   3  87 N3        30.30S
AUGUSTA        FAIR      21  15  78 S5        30.29F
WATERVILLE     FAIR      15  13  91 S3        30.26F
BANGOR         FAIR      20  16  84 S3        30.29F
GREENVILLE       N/A     25  14  63 CALM      30.16F
MILLINOCKET    FAIR      22  15  75 VRB3      30.25S
HOULTON        FAIR      22  17  81 S7        30.20F
PRESQUE ISLE   CLOUDY    20  17  88 S5        30.19S
FRENCHVILLE    CLOUDY    23  17  78 S8        30.09F
CARIBOU        CLOUDY    22  16  78 S9        30.15F
$$

NHZ002-005-008-009-011-012-014-231000-
NEW HAMPSHIRE

CITY           SKY/WX    TMP DP  RH WIND       PRES   REMARKS
PORTSMOUTH     PTCLDY    16  13  86 SW5       30.32F
ROCHESTER      FAIR      17  12  80 CALM      30.31S
NASHUA         FAIR      10   9  95 NW5       30.35F
MANCHESTER     FAIR      15  11  83 S3        30.32F
CONCORD        FAIR       7   4  87 CALM      30.33F
LACONIA        FAIR      10   8  92 W5        30.31F
PLYMOUTH       FAIR       2  -1  87 CALM      30.33F
BERLIN         FAIR      -3  -8  79 CALM      30.26F
WHITEFIELD     FAIR      -1  -6  79 CALM      30.28F
JAFFREY        FAIR       9   6  88 CALM      30.30S
KEENE          FAIR       4   1  88 CALM      30.37S
LEBANON        FAIR       6   1  80 CALM      30.32F
MT WASHINGTON  PTCLDY    21  -6  30 W56         N/A  WCI  -2
$$

VTZ005-007-008-231000-
VERMONT

CITY           SKY/WX    TMP DP  RH WIND       PRES   REMARKS
ST JOHNSBURY     N/A      6   3  87 MISG      30.30F
MONTPELIER     FAIR      11   9  92 CALM      30.30F
BURLINGTON     FAIR      29  15  56 S6        30.31S
$$

MAZ007-012-024-CTZ003-RIZ002-NYZ038-NYZ072-231000-
SOUTHERN NEW ENGLAND AND NY

CITY           SKY/WX    TMP DP  RH WIND       PRES   REMARKS
BOSTON         FAIR      28  16  60 SW6       30.35F
WORCESTER      FAIR      27  12  53 W13       30.29F WCI  16
NANTUCKET      FAIR      22  20  92 NW3       30.38F
PROVIDENCE     CLEAR     21  18  86 W3        30.38F
HARTFORD       FAIR      13   8  81 CALM      30.36F
ALBANY         FAIR      15  10  80 CALM      30.38S
NEW YORK CITY  FAIR      32  20  61 CALM      30.39S
$$

ANZ081-ANZ082-ANZ150-NHZ014-MEZ023>029-231000-
COASTAL MARINE OBSERVATIONS

STATION/POSITION TIME  TEMP    WIND        PRES    WAVE
                       AIR SEA DIR/SP/G            HT/PER
                 (UTC) (F)     (DEG/KT/KT) (MB)    (FT/S)
MOUNT DESERT ROC 0900          210/ 20/ 23 1025.9F
ISLE OF SHOALS   0800   31     250/  9/  9 1027.2F
JEFFREYS LEDGE   0808      44                N/A     3/ 4
GEORGES BANK BUO 0850      44              1030.2S   3/ 9
$$

.............KEY..............
   WCI - WIND CHILL
   TC  - TEMPERATURE IN CELSIUS
   VSB - VISIBILITY IN MILES
   HX  - HEAT INDEX
   FAIR- INDICATES FEW OR NO CLOUDS BELOW 12,000 FT, WITH NO
         SIGNIFICANT WEATHER AND/OR OBSTRUCTIONS TO VISIBILITY.






USA.gov is the U.S. government's official web portal to all federal, state and local government web resources and services.